When you browse on this site, cookies collect data to enhance your experience and personalize the content and advertising you see.
Visit our Privacy Policy to learn more. By continuing to use the site, you agree to this use of cookies and data.
  • en Suisse
  • Liste des pays
  • À 7 jours
  • Température de l'eau
  • Carte météo
  • Widgets météo
  • user-avatar
    Se connecter

    Météo par heure à Bezlepkino

    Ce jour, 17 Septembre, Mardi

    Heure Température Précipitation Vent Pression Humidité
    00:00 +8°C° 0 mm 5 m/s 732 mmHg 88%
    01:00 +8°C° 0 mm 5 m/s 732 mmHg 90%
    02:00 +8°C° 0 mm 4 m/s 732 mmHg 92%
    03:00 +7°C° 0 mm 4 m/s 732 mmHg 92%
    04:00 +7°C° 0 mm 5 m/s 732 mmHg 93%
    05:00 +7°C° 0 mm 5 m/s 732 mmHg 93%
    06:00 +8°C° 0 mm 5 m/s 732 mmHg 86%
    07:00 +8°C° 0 mm 6 m/s 732 mmHg 80%
    08:00 +9°C° 0 mm 7 m/s 732 mmHg 73%
    09:00 +10°C° 0.1 mm 7 m/s 732 mmHg 68%
    10:00 +11°C° 0.1 mm 7 m/s 732 mmHg 63%
    11:00 +12°C° 0.1 mm 7 m/s 732 mmHg 58%
    12:00 +12°C° 0.2 mm 7 m/s 732 mmHg 58%
    13:00 +12°C° 0.2 mm 7 m/s 732 mmHg 58%
    14:00 +12°C° 0.2 mm 7 m/s 732 mmHg 57%
    15:00 +11°C° 0.2 mm 6 m/s 732 mmHg 64%
    16:00 +10°C° 0.2 mm 5 m/s 731 mmHg 70%
    17:00 +10°C° 0.2 mm 4 m/s 731 mmHg 76%
    18:00 +9°C° 0 mm 3 m/s 732 mmHg 79%
    19:00 +8°C° 0 mm 3 m/s 732 mmHg 83%
    20:00 +7°C° 0 mm 3 m/s 732 mmHg 86%
    21:00 +7°C° 0 mm 3 m/s 732 mmHg 86%
    22:00 +5°C° 0 mm 3 m/s 732 mmHg 87%
    23:00 +5°C° 0 mm 3 m/s 731 mmHg 87%

    Demain, 18 Septembre, Mercredi

    Heure Température Précipitation Vent Pression Humidité
    00:00 +5°C° 0 mm 3 m/s 731 mmHg 87%
    01:00 +5°C° 0 mm 3 m/s 731 mmHg 87%
    02:00 +5°C° 0 mm 3 m/s 731 mmHg 87%
    03:00 +5°C° 0 mm 3 m/s 731 mmHg 87%
    04:00 +4°C° 0 mm 3 m/s 730 mmHg 88%
    05:00 +4°C° 0 mm 3 m/s 730 mmHg 88%
    06:00 +6°C° 0.7 mm 2 m/s 729 mmHg 89%
    07:00 +6°C° 0.7 mm 2 m/s 729 mmHg 90%
    08:00 +7°C° 0.7 mm 2 m/s 729 mmHg 90%
    09:00 +8°C° 0.4 mm 2 m/s 729 mmHg 90%
    10:00 +8°C° 0.4 mm 3 m/s 729 mmHg 89%
    11:00 +9°C° 0.4 mm 3 m/s 728 mmHg 88%
    12:00 +9°C° 0.5 mm 3 m/s 728 mmHg 85%
    13:00 +10°C° 0.5 mm 2 m/s 728 mmHg 81%
    14:00 +12°C° 0.5 mm 2 m/s 727 mmHg 77%
    15:00 +10°C° 0.5 mm 2 m/s 727 mmHg 81%
    16:00 +9°C° 0.5 mm 2 m/s 727 mmHg 84%
    17:00 +9°C° 0.5 mm 3 m/s 728 mmHg 88%
    18:00 +8°C° 0.2 mm 3 m/s 728 mmHg 89%
    19:00 +8°C° 0.2 mm 3 m/s 728 mmHg 91%
    20:00 +6°C° 0.2 mm 4 m/s 729 mmHg 92%
    21:00 +6°C° 0.1 mm 4 m/s 730 mmHg 93%
    22:00 +6°C° 0.1 mm 4 m/s 730 mmHg 94%
    23:00 +5°C° 0.1 mm 4 m/s 731 mmHg 95%

    Après-demain, 19 Septembre, Jeudi

    Heure Température Précipitation Vent Pression Humidité
    00:00 +5°C° 0 mm 4 m/s 732 mmHg 95%
    01:00 +5°C° 0 mm 4 m/s 732 mmHg 96%
    02:00 +4°C° 0 mm 4 m/s 733 mmHg 96%
    03:00 +4°C° 0 mm 4 m/s 734 mmHg 96%
    04:00 +4°C° 0 mm 4 m/s 734 mmHg 97%
    05:00 +3°C° 0 mm 4 m/s 735 mmHg 97%
    06:00 +4°C° 0 mm 4 m/s 736 mmHg 95%
    07:00 +5°C° 0 mm 4 m/s 736 mmHg 94%
    08:00 +6°C° 0 mm 4 m/s 737 mmHg 92%
    09:00 +6°C° 0 mm 4 m/s 737 mmHg 90%
    10:00 +6°C° 0 mm 4 m/s 737 mmHg 88%
    11:00 +7°C° 0 mm 4 m/s 738 mmHg 86%
    12:00 +7°C° 0.1 mm 4 m/s 738 mmHg 83%
    13:00 +7°C° 0.1 mm 4 m/s 738 mmHg 81%
    14:00 +9°C° 0.1 mm 3 m/s 739 mmHg 78%
    15:00 +8°C° 0.2 mm 3 m/s 739 mmHg 80%
    16:00 +8°C° 0.2 mm 2 m/s 739 mmHg 81%
    17:00 +9°C° 0.2 mm 1 m/s 739 mmHg 83%
    18:00 +8°C° 0.2 mm 1 m/s 739 mmHg 85%
    19:00 +8°C° 0.2 mm 1 m/s 740 mmHg 87%
    20:00 +7°C° 0.2 mm 1 m/s 740 mmHg 88%
    21:00 +7°C° 0 mm 1 m/s 740 mmHg 88%
    22:00 +7°C° 0 mm 1 m/s 740 mmHg 87%
    23:00 +5°C° 0 mm 2 m/s 740 mmHg 87%

    20 Septembre, Vendredi

    Heure Température Précipitation Vent Pression Humidité
    00:00 +4°C° 0 mm 2 m/s 740 mmHg 89%
    01:00 +4°C° 0 mm 2 m/s 740 mmHg 91%
    02:00 +3°C° 0 mm 2 m/s 740 mmHg 93%
    03:00 +3°C° 0 mm 2 m/s 740 mmHg 94%
    04:00 +2°C° 0 mm 2 m/s 740 mmHg 95%
    05:00 +2°C° 0 mm 2 m/s 740 mmHg 96%
    06:00 +3°C° 0 mm 2 m/s 740 mmHg 93%
    07:00 +4°C° 0 mm 2 m/s 740 mmHg 90%
    08:00 +5°C° 0 mm 2 m/s 740 mmHg 86%
    09:00 +6°C° 0 mm 2 m/s 740 mmHg 78%
    10:00 +7°C° 0 mm 2 m/s 740 mmHg 71%
    11:00 +8°C° 0 mm 2 m/s 741 mmHg 63%
    12:00 +8°C° 0 mm 2 m/s 740 mmHg 60%
    13:00 +9°C° 0 mm 2 m/s 740 mmHg 57%
    14:00 +9°C° 0 mm 2 m/s 740 mmHg 54%
    15:00 +8°C° 0 mm 2 m/s 740 mmHg 57%
    16:00 +9°C° 0 mm 1 m/s 740 mmHg 61%
    17:00 +8°C° 0 mm 1 m/s 740 mmHg 65%
    18:00 +7°C° 0 mm 1 m/s 740 mmHg 66%
    19:00 +6°C° 0 mm 1 m/s 741 mmHg 66%
    20:00 +6°C° 0 mm 1 m/s 741 mmHg 67%
    21:00 +6°C° 0 mm 1 m/s 741 mmHg 68%
    22:00 +5°C° 0 mm 1 m/s 741 mmHg 70%
    23:00 +4°C° 0 mm 2 m/s 741 mmHg 71%

    21 Septembre, Samedi

    Heure Température Précipitation Vent Pression Humidité
    00:00 +4°C° 0 mm 2 m/s 741 mmHg 76%
    01:00 +3°C° 0 mm 2 m/s 742 mmHg 80%
    02:00 +1°C° 0 mm 3 m/s 742 mmHg 85%
    03:00 +1°C° 0 mm 3 m/s 742 mmHg 85%
    04:00 +2°C° 0 mm 3 m/s 742 mmHg 86%
    05:00 +2°C° 0 mm 3 m/s 743 mmHg 86%
    06:00 +2°C° 0 mm 3 m/s 743 mmHg 80%
    07:00 +3°C° 0 mm 4 m/s 743 mmHg 74%
    08:00 +4°C° 0 mm 4 m/s 744 mmHg 69%
    09:00 +5°C° 0 mm 4 m/s 744 mmHg 63%
    10:00 +6°C° 0 mm 4 m/s 744 mmHg 57%
    11:00 +7°C° 0 mm 5 m/s 744 mmHg 51%
    12:00 +7°C° 0 mm 5 m/s 744 mmHg 49%
    13:00 +8°C° 0 mm 5 m/s 744 mmHg 47%
    14:00 +8°C° 0 mm 5 m/s 744 mmHg 44%
    15:00 +7°C° 0 mm 4 m/s 744 mmHg 50%
    16:00 +6°C° 0 mm 4 m/s 745 mmHg 56%
    17:00 +5°C° 0 mm 3 m/s 745 mmHg 61%
    18:00 +4°C° 0 mm 3 m/s 745 mmHg 67%
    19:00 +3°C° 0 mm 3 m/s 746 mmHg 72%
    20:00 +2°C° 0 mm 3 m/s 746 mmHg 77%
    21:00 +1°C° 0 mm 3 m/s 746 mmHg 80%
    22:00 +2°C° 0 mm 2 m/s 746 mmHg 83%
    23:00 +1°C° 0 mm 2 m/s 746 mmHg 86%

    22 Septembre, Dimanche

    Heure Température Précipitation Vent Pression Humidité
    00:00 +1°C° 0 mm 2 m/s 746 mmHg 87%
    01:00 +1°C° 0 mm 2 m/s 747 mmHg 89%
    02:00 -1°C° 0 mm 2 m/s 747 mmHg 91%
    03:00 -1°C° 0 mm 2 m/s 747 mmHg 92%
    04:00 -1°C° 0 mm 2 m/s 747 mmHg 93%
    05:00 -1°C° 0 mm 3 m/s 747 mmHg 94%
    06:00 0°C° 0 mm 3 m/s 747 mmHg 87%
    07:00 +2°C° 0 mm 3 m/s 747 mmHg 80%
    08:00 +3°C° 0 mm 4 m/s 747 mmHg 72%
    09:00 +4°C° 0 mm 4 m/s 747 mmHg 68%
    10:00 +6°C° 0 mm 4 m/s 747 mmHg 64%
    11:00 +7°C° 0 mm 4 m/s 747 mmHg 60%
    12:00 +7°C° 0 mm 4 m/s 746 mmHg 65%
    13:00 +6°C° 0 mm 4 m/s 746 mmHg 70%
    14:00 +6°C° 0 mm 4 m/s 745 mmHg 75%
    15:00 +6°C° 0.3 mm 4 m/s 745 mmHg 80%
    16:00 +5°C° 0.3 mm 4 m/s 745 mmHg 86%
    17:00 +5°C° 0.3 mm 4 m/s 745 mmHg 91%
    18:00 +5°C° 0.3 mm 4 m/s 745 mmHg 93%
    19:00 +5°C° 0.3 mm 3 m/s 745 mmHg 94%
    20:00 +5°C° 0.3 mm 3 m/s 744 mmHg 96%
    21:00 +7°C° 0.4 mm 3 m/s 745 mmHg 97%
    22:00 +7°C° 0.4 mm 3 m/s 745 mmHg 97%
    23:00 +8°C° 0.4 mm 3 m/s 745 mmHg 98%
    Voir plus